Regional Weather Roundup
Issued by NWS

Home | Current Version | Previous Version | Text Only | Print | Product List | Glossary On
Versions: 1 2 3 4 5 6 7 8 9 10 11 12 13 14 15 16 17 18 19 20 21 22 23 24 25 26 27 28 29 30 31 32 33 34 35 36 37 38 39 40 41 42 43 44 45 46 47 48 49 50
106
ASUS43 KMKX 281621
RWRWI

WISCONSIN REGIONAL WEATHER ROUNDUP
NATIONAL WEATHER SERVICE MILWAUKEE/SULLIVAN WI
1100 AM CDT SUN AUG 28 2016

NOTE: "FAIR" INDICATES FEW OR NO CLOUDS BELOW 12,000 FEET WITH NO
SIGNIFICANT WEATHER AND/OR OBSTRUCTIONS TO VISIBILITY.

WIZ001-002-006>008-014>016-023>028-281700-
NORTHWEST WISCONSIN

CITY           SKY/WX    TMP DP  RH WIND       PRES   REMARKS
SUPERIOR ARPT  CLOUDY    63  61  93 CALM      30.17S
ASHLAND        CLOUDY    65  61  87 SW3       30.19S
HAYWARD        MOSUNNY   66  60  81 CALM      30.20R
SIREN          CLOUDY    65  63  95 E3        30.17F
CUMBERLAND     FOG       61  61 100 SE8       30.20S VSB 1
RICE LAKE      CLOUDY    63  62  96 CALM      30.22R FOG
CHETEK         NOT AVBL
LADYSMITH      PTSUNNY   69  62  77 S3        30.22F
EAU CLAIRE     CLOUDY    69  65  86 SE6       30.20R
MENOMONIE      CLOUDY    67  66  96 E8        30.20S
NEW RICHMOND   CLOUDY    66  66 100 SE7       30.18S
OSCEOLA        CLOUDY    66  66 100 E7        30.19S
$$

WIZ003>005-009-010-017-018-281700-
NORTH CENTRAL WISCONSIN

CITY           SKY/WX    TMP DP  RH WIND       PRES   REMARKS
MANITOWISH WTR NOT AVBL
ARBOR VITAE    CLOUDY    69  62  76 S3        30.23R
WOODRUFF       CLOUDY    69  62  76 S3        30.23R
RHINELANDER    CLOUDY    68  61  78 VRB5      30.24R
EAGLE RIVER    MOSUNNY   67  57  69 CALM      30.22S
LAND O LAKES   MOSUNNY   68  58  68 W3        30.24S
PHILLIPS       CLOUDY    66  60  80 CALM      30.22S
TOMAHAWK       CLOUDY    68  59  73 CALM      30.23F
MEDFORD        PTSUNNY   67  64  88 CALM      30.22F
MERRILL        SUNNY     70  61  74 CALM      30.23S
$$

WIZ029-030-035-036-043>047-281700-
CENTRAL WISCONSIN

CITY           SKY/WX    TMP DP  RH WIND       PRES   REMARKS
WAUSAU         SUNNY     70  60  70 S5        30.22R
MOSINEE        PTSUNNY   66  63  88 S6        30.25R
MARSHFIELD     CLOUDY    70  62  76 S3        30.23R
STEVENS POINT  PTSUNNY   67  60  79 CALM      30.25R
WAUPACA        MOSUNNY   75  63  66 CALM      30.23S
WAUTOMA        CLOUDY    72  65  78 SE3       30.24R
WISC RAPIDS    CLOUDY    71  64  78 S3        30.24R
CAMP DOUGLAS   PTSUNNY   72  66  83 VRB1      30.23R
$$

WIZ011>013-019>022-031-037>040-048>050-281700-
NORTHEAST WISCONSIN

CITY           SKY/WX    TMP DP  RH WIND       PRES   REMARKS
ANTIGO         MOSUNNY   69  61  76 CALM      30.24S
SHAWANO        CLOUDY    73  62  68 NE5       30.22S
OCONTO         NOT AVBL
STURGEON BAY   PTSUNNY   71  62  73 NW7       30.22R
GREEN BAY      CLOUDY    72  64  76 CALM      30.22S
MANITOWOC      MOSUNNY   74  63  68 NW6       30.23S
APPLETON       PTSUNNY   70  61  73 CALM      30.22S
CLINTONVILLE   CLOUDY    70  59  68 S6        30.23S
OSHKOSH        CLOUDY    73  63  70 VRB3      30.23R
$$

WIZ032>034-041-042-053>061-281700-
SOUTHWEST WISCONSIN

CITY           SKY/WX    TMP DP  RH WIND       PRES   REMARKS
LA CROSSE      CLOUDY    71  68  90 E7        30.20R
SPARTA         CLOUDY    70  66  86 E3        30.22S
VIROQUA        CLOUDY    67  67 100 E5        30.23S
BOSCOBEL       CLOUDY    72  68  87 VRB6      30.21S
PRAIRIE DU CHI SUNNY     72  71  95 CALM      30.19S
PLATTEVILLE    SUNNY     77  72  84 E5        30.22R
$$

WIZ056-057-062-063-064-067-068-281700-
SOUTH CENTRAL WISCONSIN

CITY           SKY/WX    TMP DP  RH WIND       PRES   REMARKS
REEDSBURG      NOT AVBL
BARABOO/DELLS  CLOUDY    66  65  96 E3        30.24S
LONE ROCK      CLOUDY    70  68  93 VRB5      30.22F
MINERAL POINT  MOSUNNY   79  70  73 SE5       30.22S HX  81
MADISON        CLOUDY    69  66  90 N7        30.23R FOG
MIDDLETON      CLOUDY    68  68 100 NE5       30.24R
WATERTOWN      CLOUDY    66  66 100 NE5       30.24R
MONROE         MOSUNNY   77  68  73 E5        30.22S
JANESVILLE     MOSUNNY   79  68  69 VRB5      30.21S HX  81
$$

WIZ051-052-058>065-066-070>072-281700-
SOUTHEAST WISCONSIN

CITY           SKY/WX    TMP DP  RH WIND       PRES   REMARKS
MILWAUKEE      CLOUDY    69  64  84 NE13      30.23F
WAUKESHA       CLOUDY    64  64 100 NE6       30.25S FOG
MILWAUKEE/TIMM CLOUDY    66  63  88 SE3       30.25S
RACINE         CLOUDY    69  65  86 N12       30.25S
BURLINGTON     SUNNY     76  64  66 E5        30.22F
KENOSHA        SUNNY     77  67  71 E8        30.23S
FOND DU LAC    MOSUNNY   74  65  73 CALM      30.23F
SHEBOYGAN      PTSUNNY   75  63  66 N3        30.23R
WEST BEND      MOSUNNY   70  64  83 CALM      30.24S
JUNEAU         CLOUDY    65  65  97 CALM      30.25S
$$

LSZ147-162-281700-
LAKE SUPERIOR

STATION/POSITION TIME  TEMP    WIND        PRES    WAVE
                       AIR SEA DIR/SP/G            HT/PER
                 (UTC) (F)     (DEG/KT/KT) (MB)    (FT/S)
W MID LAKE BUOY  1550   66 67  230/ 10/ 12 1021.8R   1
DEVILS ISLAND    1600   63     210/  7/  9 1022.3R
PORT WING        1500   63     220/  3/  6 1022.0
SAXON HARBOR     1540   67      40/  3/  5 1022.0R
$$

LMZ867-665-643>646-281700-
LAKE MICHIGAN

STATION/POSITION TIME  TEMP    WIND        PRES    WAVE
                       AIR SEA DIR/SP/G            HT/PER
                 (UTC) (F)     (DEG/KT/KT) (MB)    (FT/S)
CHAMBERS ISLAND  1500   71     230/  3/  6 1022.0S
S GREEN BAY BUOY 1500   68 71  250/  6/  8 1022.2R
N MID LAKE BUOY  1550   68 71  250/ 10/ 12 1022.0R   1/ 3
NORTHPORT PIER   1500   71     260/  3/ 12 1022.0R
SISTER BAY       1452   74     290/ 10/ 11   N/A
KEWAUNEE LAKESHO 1500   69     270/  2/  6 1022.6R
SHEBOYGAN LAKESH 1600   64     170/ 10/ 10 1023.1R
PORT WASHINGTON  1500   69     190/  4/  6 1024.4R
ATWATER BUOY     1600   64     300/  6/  6   N/A
MILWAUKEE LAKESH 1510   64      10/  7/  9   N/A
S MID LAKE BUOY  1550   73 75   10/ 10/ 12 1022.7R   1
KENOSHA   LAKESH 1600   65      30/ 13/ 16 1023.0F
$$

TC  - TEMPERATURE IN CELSIUS
VSB - VISIBILITY IN STATUTE MILES
WCI - WIND CHILL INDEX
HX  - HEAT INDEX





USA.gov is the U.S. government's official web portal to all federal, state and local government web resources and services.